BOX556 EDDP-VOBL

Flight info

Callsign BOX556
Flight time N/A
Altitude 39000
Route DRN2E DRN Z21 OMELO DCT EVIKU DCT PATAK DCT GANNA DCT IRLOX DCT UDROS UM859 KARDE UL851 TBN UG261 NOLGA DCT BARAD M747 BODKA P130 DOGAM/N0475F410 P130 MAMED B449 RANAH L750 ZB G202 RK/N0485F390 P628 VIKIT Z8 AAE/N0485F380 R458 BVR/N0487F370 R458 BBB Q13 BEKUT Q9 RIKBU
Aircraft B77L/H-SDE2E3GHIJ4J5M1P2RWXYZ/LB1D1

Departure

Time 2026-05-08 07:58
Airport Leipzig/Halle Airport (EDDP)

Arrival

Time N/A
Airport Kempegowda International Airport Bengaluru (VOBL)
Time Latitude Longitude Altitude Speed Heading
2026-05-08 07:01 51.40755 12.24835 467 ft 0 kts 85°
2026-05-08 07:45 51.40755 12.24831 467 ft 2 kts 86°
2026-05-08 07:46 51.40758 12.24797 463 ft 4 kts 142°
2026-05-08 07:46 51.40781 12.24782 466 ft 4 kts 148°
2026-05-08 07:46 51.40793 12.24761 463 ft 4 kts 116°
2026-05-08 07:46 51.40802 12.24721 467 ft 4 kts 94°
2026-05-08 07:47 51.40798 12.24686 462 ft 4 kts 33°
2026-05-08 07:47 51.40789 12.24680 462 ft 1 kts 355°
2026-05-08 07:49 51.40791 12.24680 462 ft 3 kts 355°
2026-05-08 07:49 51.40830 12.24675 467 ft 6 kts 355°
2026-05-08 07:50 51.40851 12.24673 469 ft 5 kts 356°
2026-05-08 07:50 51.40915 12.24665 465 ft 11 kts 356°
2026-05-08 07:50 51.40988 12.24657 468 ft 11 kts 356°
2026-05-08 07:50 51.41058 12.24649 473 ft 6 kts 356°
2026-05-08 07:51 51.41093 12.24616 472 ft 6 kts 292°
2026-05-08 07:51 51.41092 12.24512 474 ft 13 kts 266°
2026-05-08 07:51 51.41085 12.24373 470 ft 13 kts 266°
2026-05-08 07:51 51.41079 12.24233 472 ft 13 kts 266°
2026-05-08 07:52 51.41072 12.24088 469 ft 15 kts 266°
2026-05-08 07:52 51.41062 12.23876 470 ft 21 kts 265°
2026-05-08 07:52 51.41051 12.23644 475 ft 21 kts 265°
2026-05-08 07:52 51.41040 12.23413 475 ft 21 kts 265°
2026-05-08 07:53 51.41029 12.23181 469 ft 21 kts 266°
2026-05-08 07:53 51.41019 12.22953 472 ft 21 kts 265°
2026-05-08 07:53 51.41008 12.22722 471 ft 21 kts 265°
2026-05-08 07:53 51.40997 12.22490 467 ft 21 kts 265°
2026-05-08 07:54 51.40994 12.22351 465 ft 8 kts 284°
2026-05-08 07:54 51.41046 12.22310 464 ft 9 kts 349°
2026-05-08 07:54 51.41072 12.22226 464 ft 10 kts 266°
2026-05-08 07:54 51.41066 12.22102 464 ft 14 kts 265°
2026-05-08 07:55 51.41056 12.21891 464 ft 24 kts 265°
2026-05-08 07:55 51.41042 12.21592 462 ft 28 kts 266°
2026-05-08 07:55 51.41029 12.21300 456 ft 25 kts 265°
2026-05-08 07:55 51.41016 12.21021 448 ft 26 kts 266°
2026-05-08 07:56 51.41003 12.20768 433 ft 21 kts 265°
2026-05-08 07:56 51.40994 12.20558 436 ft 14 kts 267°
2026-05-08 07:56 51.41058 12.20486 428 ft 14 kts 15°
2026-05-08 07:56 51.41151 12.20528 439 ft 13 kts 27°
2026-05-08 07:57 51.41172 12.20685 433 ft 23 kts 86°
2026-05-08 07:57 51.41198 12.21251 452 ft 86 kts 85°
2026-05-08 07:57 51.41261 12.22572 467 ft 150 kts 85°
2026-05-08 07:57 51.41353 12.24395 762 ft 169 kts 85°
2026-05-08 07:58 51.41433 12.26330 1387 ft 179 kts 85°
2026-05-08 07:58 51.41518 12.28353 2026 ft 185 kts 86°
2026-05-08 07:58 51.41610 12.30492 2357 ft 204 kts 86°
2026-05-08 07:58 51.41717 12.32877 2615 ft 226 kts 85°
2026-05-08 07:59 51.41835 12.35457 3160 ft 237 kts 85°
2026-05-08 07:59 51.41960 12.38161 3734 ft 248 kts 85°
2026-05-08 07:59 51.42091 12.40959 4400 ft 255 kts 85°
2026-05-08 07:59 51.42226 12.43814 5122 ft 259 kts 85°
2026-05-08 08:00 51.42363 12.46713 5885 ft 262 kts 85°
2026-05-08 08:00 51.42499 12.49609 6588 ft 266 kts 85°
2026-05-08 08:00 51.42638 12.52588 7270 ft 270 kts 85°
2026-05-08 08:00 51.42745 12.55589 7970 ft 271 kts 93°
2026-05-08 08:01 51.42179 12.58477 8498 ft 277 kts 121°
2026-05-08 08:01 51.41110 12.61076 9093 ft 282 kts 122°
2026-05-08 08:01 51.40041 12.63730 9831 ft 285 kts 121°
2026-05-08 08:01 51.38967 12.66418 10481 ft 289 kts 121°
2026-05-08 08:02 51.37854 12.69208 10738 ft 309 kts 121°
2026-05-08 08:02 51.36658 12.72208 10899 ft 330 kts 121°
2026-05-08 08:02 51.35401 12.75363 11079 ft 352 kts 122°
2026-05-08 08:02 51.34047 12.78758 11320 ft 371 kts 122°
2026-05-08 08:03 51.32642 12.82280 11850 ft 380 kts 122°
2026-05-08 08:03 51.31205 12.85878 12475 ft 387 kts 122°
2026-05-08 08:03 51.29748 12.89525 13199 ft 392 kts 123°
2026-05-08 08:03 51.28273 12.93213 13908 ft 396 kts 123°
2026-05-08 08:04 51.26777 12.96949 14512 ft 401 kts 123°
2026-05-08 08:04 51.25266 13.00715 15190 ft 404 kts 123°
2026-05-08 08:04 51.23767 13.04449 15852 ft 407 kts 123°
2026-05-08 08:04 51.22233 13.08267 16478 ft 411 kts 123°
2026-05-08 08:05 51.20682 13.12122 17088 ft 415 kts 123°
2026-05-08 08:05 51.19112 13.16017 17700 ft 420 kts 123°
2026-05-08 08:05 51.17524 13.19946 18319 ft 423 kts 124°
2026-05-08 08:05 51.15929 13.23912 18879 ft 427 kts 123°
2026-05-08 08:06 51.14334 13.27929 19400 ft 430 kts 123°
2026-05-08 08:06 51.12735 13.31969 19946 ft 433 kts 123°
2026-05-08 08:06 51.11120 13.36046 20469 ft 437 kts 123°
2026-05-08 08:06 51.09515 13.40088 20992 ft 440 kts 123°
2026-05-08 08:07 51.07866 13.44229 21493 ft 445 kts 123°
2026-05-08 08:07 51.06202 13.48399 22001 ft 448 kts 123°
2026-05-08 08:07 51.04526 13.52597 22526 ft 451 kts 123°
2026-05-08 08:07 51.02835 13.56818 23041 ft 455 kts 123°
2026-05-08 08:08 51.01128 13.61072 23540 ft 458 kts 123°
2026-05-08 08:08 50.99412 13.65358 23950 ft 463 kts 123°
2026-05-08 08:08 50.97678 13.69691 24347 ft 466 kts 123°
2026-05-08 08:08 50.95935 13.74043 24765 ft 469 kts 123°
2026-05-08 08:09 50.94179 13.78417 25192 ft 471 kts 124°
2026-05-08 08:09 50.92399 13.82703 25592 ft 473 kts 127°
2026-05-08 08:09 50.90404 13.86877 25993 ft 476 kts 130°
2026-05-08 08:09 50.88324 13.90972 26367 ft 479 kts 130°
2026-05-08 08:10 50.86243 13.95114 26754 ft 482 kts 129°
2026-05-08 08:10 50.84149 13.99267 27139 ft 484 kts 132°
2026-05-08 08:10 50.81841 14.03154 27502 ft 486 kts 139°
2026-05-08 08:10 50.79329 14.06740 27879 ft 488 kts 140°
2026-05-08 08:11 50.76792 14.10316 28251 ft 490 kts 140°
2026-05-08 08:11 50.74279 14.13874 28600 ft 493 kts 140°
2026-05-08 08:11 50.71724 14.17514 28939 ft 496 kts 140°
2026-05-08 08:11 50.69158 14.21189 29201 ft 500 kts 140°
2026-05-08 08:12 50.66576 14.24894 29504 ft 503 kts 140°
2026-05-08 08:12 50.63987 14.28610 29819 ft 505 kts 140°
2026-05-08 08:12 50.61387 14.32335 30182 ft 505 kts 140°
2026-05-08 08:12 50.58785 14.36056 30570 ft 504 kts 140°
2026-05-08 08:13 50.56194 14.39754 30976 ft 502 kts 140°
2026-05-08 08:13 50.53634 14.43400 31163 ft 506 kts 140°
2026-05-08 08:13 50.51017 14.47122 31106 ft 507 kts 140°
2026-05-08 08:14 50.45913 14.54675 31107 ft 504 kts 134°
2026-05-08 08:14 50.41576 14.63342 31123 ft 506 kts 128°
2026-05-08 08:15 50.37390 14.72227 31121 ft 507 kts 128°
2026-05-08 08:15 50.33183 14.81032 31111 ft 509 kts 129°
2026-05-08 08:16 50.28920 14.89869 31125 ft 509 kts 129°
2026-05-08 08:16 50.24640 14.98700 31132 ft 510 kts 129°
2026-05-08 08:17 50.20351 15.07526 31105 ft 510 kts 129°
2026-05-08 08:17 50.16084 15.16278 31104 ft 510 kts 129°
2026-05-08 08:18 50.11786 15.25068 31118 ft 510 kts 129°
2026-05-08 08:18 50.07481 15.33841 31117 ft 510 kts 129°
2026-05-08 08:19 50.03170 15.42596 31113 ft 510 kts 129°
2026-05-08 08:19 49.98880 15.51283 31112 ft 510 kts 129°
2026-05-08 08:20 49.94556 15.60005 31120 ft 510 kts 129°
2026-05-08 08:20 49.90222 15.68723 31105 ft 510 kts 129°
2026-05-08 08:21 49.85884 15.77418 31103 ft 510 kts 129°
2026-05-08 08:21 49.81567 15.86044 31100 ft 510 kts 129°
2026-05-08 08:22 49.77212 15.94716 31082 ft 510 kts 130°
2026-05-08 08:22 49.72853 16.03369 31106 ft 511 kts 130°
2026-05-08 08:23 49.68475 16.12027 31103 ft 512 kts 130°
2026-05-08 08:23 49.64110 16.20635 31100 ft 513 kts 130°
2026-05-08 08:24 49.59704 16.29296 31097 ft 514 kts 130°
2026-05-08 08:24 49.55284 16.37953 31088 ft 514 kts 130°
2026-05-08 08:25 49.50852 16.46607 31092 ft 514 kts 131°
2026-05-08 08:25 49.46446 16.55185 31085 ft 515 kts 131°
2026-05-08 08:26 49.42003 16.63804 31074 ft 514 kts 131°
2026-05-08 08:26 49.37560 16.72397 31080 ft 514 kts 131°
2026-05-08 08:27 49.33106 16.80980 31083 ft 514 kts 131°
2026-05-08 08:27 49.28676 16.89491 31083 ft 514 kts 131°
2026-05-08 08:28 49.24207 16.98050 31080 ft 515 kts 131°
2026-05-08 08:28 49.19730 17.06596 31081 ft 515 kts 131°
2026-05-08 08:29 49.15246 17.15128 31089 ft 515 kts 132°
2026-05-08 08:29 49.10785 17.23589 31087 ft 515 kts 132°
2026-05-08 08:30 49.06285 17.32098 31102 ft 515 kts 132°
2026-05-08 08:30 48.99522 17.44832 31106 ft 516 kts 132°
2026-05-08 08:31 48.95033 17.53252 31102 ft 516 kts 132°
2026-05-08 08:31 48.90503 17.61721 31094 ft 516 kts 132°
2026-05-08 08:32 48.85966 17.70177 31076 ft 516 kts 133°
2026-05-08 08:32 48.81425 17.78615 31056 ft 516 kts 133°
2026-05-08 08:33 48.76879 17.87034 31072 ft 516 kts 133°
2026-05-08 08:33 48.72359 17.95378 31076 ft 516 kts 133°
2026-05-08 08:34 48.67801 18.03766 31066 ft 517 kts 133°
2026-05-08 08:34 48.63237 18.12141 31041 ft 511 kts 133°
2026-05-08 08:35 48.58757 18.20343 31056 ft 503 kts 134°
2026-05-08 08:35 48.54328 18.28416 31055 ft 502 kts 134°
2026-05-08 08:36 48.49874 18.36509 31053 ft 501 kts 134°
2026-05-08 08:36 48.45419 18.44581 31035 ft 501 kts 134°
2026-05-08 08:37 48.40956 18.52645 31067 ft 502 kts 134°
2026-05-08 08:37 48.36502 18.60667 31049 ft 503 kts 134°
2026-05-08 08:38 48.31950 18.68833 31068 ft 517 kts 134°
2026-05-08 08:38 48.27301 18.77160 31038 ft 521 kts 134°
2026-05-08 08:39 48.22638 18.85491 31375 ft 521 kts 134°
2026-05-08 08:39 48.20313 18.89636 31816 ft 518 kts 134°
2026-05-08 08:39 48.18002 18.93749 32261 ft 515 kts 135°
2026-05-08 08:40 48.15730 18.97784 32637 ft 512 kts 135°
2026-05-08 08:40 48.13432 19.01858 32958 ft 512 kts 135°
2026-05-08 08:40 48.08798 19.10052 33043 ft 517 kts 135°
2026-05-08 08:41 48.04542 19.18726 33057 ft 517 kts 127°
2026-05-08 08:41 48.00652 19.27730 33072 ft 516 kts 127°
2026-05-08 08:42 47.96770 19.36640 33061 ft 515 kts 127°
2026-05-08 08:42 47.92833 19.45572 33058 ft 515 kts 128°
2026-05-08 08:43 47.88879 19.54484 33068 ft 515 kts 128°
2026-05-08 08:43 47.84918 19.63382 33062 ft 516 kts 128°
2026-05-08 08:44 47.80973 19.72219 33067 ft 516 kts 128°
2026-05-08 08:44 47.76993 19.81108 33060 ft 516 kts 128°
2026-05-08 08:45 47.73004 19.89987 33057 ft 517 kts 128°
2026-05-08 08:45 47.69004 19.98865 33063 ft 518 kts 128°
2026-05-08 08:46 47.64992 20.07738 33063 ft 518 kts 128°
2026-05-08 08:46 47.60997 20.16546 33055 ft 518 kts 128°
2026-05-08 08:47 47.56967 20.25403 33062 ft 519 kts 128°
2026-05-08 08:47 47.52925 20.34257 33055 ft 519 kts 128°
2026-05-08 08:48 47.48876 20.43097 33056 ft 519 kts 129°
2026-05-08 08:48 47.44822 20.51922 33059 ft 518 kts 129°
2026-05-08 08:49 47.40797 20.60655 33072 ft 517 kts 129°
2026-05-08 08:49 47.36742 20.69425 33066 ft 517 kts 129°
2026-05-08 08:50 47.32738 20.78055 33069 ft 517 kts 129°
2026-05-08 08:50 47.28624 20.86895 33070 ft 516 kts 129°
2026-05-08 08:51 47.24588 20.95541 33071 ft 516 kts 129°
2026-05-08 08:51 47.20517 21.04234 33072 ft 516 kts 129°
2026-05-08 08:52 47.16441 21.12911 33062 ft 515 kts 129°
2026-05-08 08:52 47.12394 21.21501 33070 ft 515 kts 130°
2026-05-08 08:53 47.08316 21.30126 33071 ft 514 kts 130°
2026-05-08 08:53 47.04232 21.38739 33051 ft 514 kts 130°
2026-05-08 08:54 47.00147 21.47329 33065 ft 513 kts 130°
2026-05-08 08:54 46.96081 21.55848 33070 ft 514 kts 130°
2026-05-08 08:55 46.91976 21.64425 33076 ft 515 kts 130°
2026-05-08 08:55 46.87855 21.73008 33044 ft 516 kts 130°
2026-05-08 08:56 46.83724 21.81588 33077 ft 517 kts 130°
2026-05-08 08:56 46.79610 21.90106 33081 ft 517 kts 130°
2026-05-08 08:57 46.75457 21.98680 33065 ft 517 kts 130°
2026-05-08 08:57 46.71301 22.07237 33075 ft 517 kts 130°
2026-05-08 08:58 46.67135 22.15750 33081 ft 516 kts 131°
2026-05-08 08:58 46.62950 22.24216 33070 ft 515 kts 131°
2026-05-08 08:59 46.58798 22.32591 33074 ft 513 kts 131°
2026-05-08 08:59 46.54627 22.40991 33084 ft 511 kts 130°
2026-05-08 09:00 46.50464 22.49354 33087 ft 511 kts 130°
2026-05-08 09:00 46.46294 22.57704 33088 ft 511 kts 131°
2026-05-08 09:01 46.42143 22.65992 33084 ft 512 kts 131°
2026-05-08 09:01 46.37953 22.74335 33074 ft 512 kts 131°
2026-05-08 09:02 46.33911 22.82816 33074 ft 514 kts 125°
2026-05-08 09:02 46.30333 22.91764 33046 ft 514 kts 124°
2026-05-08 09:03 46.26794 23.00710 33058 ft 512 kts 124°
2026-05-08 09:03 46.23242 23.09544 33064 ft 512 kts 125°
2026-05-08 09:04 46.19638 23.18395 33075 ft 511 kts 125°
2026-05-08 09:04 46.16018 23.27233 33079 ft 512 kts 125°
2026-05-08 09:05 46.12385 23.36079 33046 ft 513 kts 125°
2026-05-08 09:05 46.08776 23.44851 33050 ft 512 kts 125°
2026-05-08 09:06 46.05146 23.53647 33051 ft 510 kts 125°
2026-05-08 09:06 46.01513 23.62420 33038 ft 510 kts 125°
2026-05-08 09:07 45.97877 23.71173 33052 ft 509 kts 124°
2026-05-08 09:07 45.94264 23.79843 33063 ft 509 kts 125°
2026-05-08 09:08 45.90618 23.88564 33071 ft 509 kts 125°
2026-05-08 09:08 45.86963 23.97280 33074 ft 510 kts 125°
2026-05-08 09:09 45.83297 24.05994 33071 ft 510 kts 125°
2026-05-08 09:09 45.79652 24.14633 33069 ft 510 kts 125°
2026-05-08 09:10 45.75977 24.23318 33075 ft 509 kts 125°
2026-05-08 09:10 45.72300 24.31978 33089 ft 509 kts 125°
2026-05-08 09:11 45.68605 24.40650 33041 ft 512 kts 125°
2026-05-08 09:11 45.64902 24.49320 33052 ft 510 kts 125°
2026-05-08 09:12 45.61222 24.57907 33024 ft 510 kts 125°
2026-05-08 09:12 45.57516 24.66528 33057 ft 509 kts 125°
2026-05-08 09:13 45.53803 24.75141 33071 ft 510 kts 125°
2026-05-08 09:13 45.50088 24.83733 33076 ft 508 kts 125°
2026-05-08 09:14 45.46397 24.92239 33060 ft 508 kts 124°
2026-05-08 09:14 45.42672 25.00803 33058 ft 509 kts 125°
2026-05-08 09:15 45.38930 25.09373 33062 ft 510 kts 125°
2026-05-08 09:15 45.35177 25.17945 33053 ft 511 kts 125°
2026-05-08 09:16 45.31443 25.26448 33065 ft 511 kts 125°
2026-05-08 09:16 45.27674 25.35007 33062 ft 511 kts 125°
2026-05-08 09:17 45.23899 25.43553 33054 ft 511 kts 125°
2026-05-08 09:17 45.20120 25.52079 33050 ft 511 kts 124°
2026-05-08 09:18 45.16336 25.60595 33058 ft 510 kts 124°
2026-05-08 09:18 45.12571 25.69042 33060 ft 510 kts 125°
2026-05-08 09:19 45.08779 25.77524 33038 ft 510 kts 124°
2026-05-08 09:19 45.04985 25.85984 33057 ft 510 kts 124°
2026-05-08 09:20 45.01180 25.94444 33058 ft 510 kts 124°
2026-05-08 09:20 44.97395 26.02835 33055 ft 510 kts 125°
2026-05-08 09:21 44.93575 26.11277 33050 ft 510 kts 124°
2026-05-08 09:23 44.80181 26.40687 33050 ft 511 kts 124°
2026-05-08 09:23 44.76329 26.49088 33055 ft 511 kts 125°
2026-05-08 09:24 44.72468 26.57486 33078 ft 511 kts 125°
2026-05-08 09:24 44.68601 26.65873 33055 ft 511 kts 124°
2026-05-08 09:25 44.64752 26.74196 33069 ft 512 kts 124°
2026-05-08 09:25 44.60865 26.82575 33076 ft 512 kts 125°
2026-05-08 09:26 44.56974 26.90940 33062 ft 512 kts 125°
2026-05-08 09:26 44.53073 26.99301 33074 ft 512 kts 125°
2026-05-08 09:27 44.49168 27.07647 33076 ft 512 kts 125°
2026-05-08 09:27 44.45282 27.15928 33067 ft 512 kts 125°
2026-05-08 09:28 44.41371 27.24239 33061 ft 512 kts 125°
2026-05-08 09:28 44.37453 27.32541 33074 ft 511 kts 125°
2026-05-08 09:29 44.33529 27.40832 33076 ft 511 kts 125°
2026-05-08 09:29 44.29626 27.49054 33077 ft 512 kts 125°
2026-05-08 09:30 44.25688 27.57327 33071 ft 512 kts 125°
2026-05-08 09:30 44.21739 27.65599 33076 ft 513 kts 125°
2026-05-08 09:31 44.17780 27.73868 33083 ft 513 kts 125°
2026-05-08 09:31 44.13836 27.82084 33081 ft 514 kts 125°
2026-05-08 09:32 44.09854 27.90354 33080 ft 515 kts 125°
2026-05-08 09:32 44.05864 27.98619 33082 ft 515 kts 125°
2026-05-08 09:33 44.01864 28.06880 33071 ft 515 kts 125°
2026-05-08 09:33 43.97889 28.15066 33073 ft 514 kts 125°
2026-05-08 09:34 43.93884 28.23290 33086 ft 514 kts 125°
2026-05-08 09:34 43.89875 28.31500 33081 ft 514 kts 125°
2026-05-08 09:35 43.85861 28.39697 33081 ft 514 kts 125°
2026-05-08 09:35 43.81868 28.47828 33093 ft 514 kts 125°
2026-05-08 09:36 43.77847 28.55993 33099 ft 514 kts 125°
2026-05-08 09:36 43.73816 28.64157 33094 ft 514 kts 125°
2026-05-08 09:37 43.70463 28.70929 33100 ft 513 kts 125°
2026-05-08 09:37 43.65771 28.80381 33102 ft 513 kts 125°
2026-05-08 09:38 43.61726 28.88505 33114 ft 513 kts 125°
2026-05-08 09:38 43.57680 28.96607 33109 ft 513 kts 125°
2026-05-08 09:39 43.54311 29.03337 33107 ft 513 kts 125°
2026-05-08 09:39 43.49598 29.12727 33111 ft 513 kts 125°
2026-05-08 09:40 43.45536 29.20795 33109 ft 513 kts 125°
2026-05-08 09:40 43.42155 29.27495 33112 ft 513 kts 125°
2026-05-08 09:41 43.38078 29.35553 33114 ft 513 kts 125°
2026-05-08 09:41 43.33996 29.43598 33125 ft 513 kts 125°
2026-05-08 09:42 43.29905 29.51639 33109 ft 513 kts 125°
2026-05-08 09:42 43.25816 29.59655 33120 ft 513 kts 125°
2026-05-08 09:43 43.21751 29.67602 33122 ft 512 kts 125°
2026-05-08 09:43 43.17657 29.75585 33117 ft 512 kts 125°
2026-05-08 09:44 43.13557 29.83557 33119 ft 512 kts 125°
2026-05-08 09:44 43.09456 29.91512 33120 ft 511 kts 125°
2026-05-08 09:45 43.05349 29.99455 33108 ft 511 kts 125°
2026-05-08 09:45 43.01262 30.07339 33124 ft 512 kts 125°
2026-05-08 09:46 42.97137 30.15275 33123 ft 513 kts 126°
2026-05-08 09:46 42.93003 30.23207 33133 ft 513 kts 126°
2026-05-08 09:47 42.88862 30.31134 33119 ft 513 kts 126°
2026-05-08 09:47 42.84744 30.38994 33120 ft 513 kts 126°
2026-05-08 09:48 42.80598 30.46891 33139 ft 512 kts 126°
2026-05-08 09:48 42.76502 30.54798 33116 ft 510 kts 121°
2026-05-08 09:49 42.73669 30.63583 33127 ft 507 kts 105°
2026-05-08 09:49 42.72425 30.72904 33141 ft 504 kts 96°
2026-05-08 09:50 42.71554 30.82354 33127 ft 503 kts 96°
2026-05-08 09:50 42.70634 30.91778 33126 ft 502 kts 97°
2026-05-08 09:51 42.69671 31.01180 33131 ft 502 kts 97°
2026-05-08 09:51 42.68697 31.10512 33126 ft 502 kts 97°
2026-05-08 09:52 42.67712 31.19897 33129 ft 502 kts 97°
2026-05-08 09:52 42.66721 31.29279 33132 ft 502 kts 97°
2026-05-08 09:53 42.65724 31.38657 33146 ft 501 kts 97°
2026-05-08 09:53 42.64721 31.48028 33134 ft 501 kts 97°
2026-05-08 09:54 42.63907 31.57355 33124 ft 500 kts 95°
2026-05-08 09:54 42.63192 31.66742 33130 ft 499 kts 95°
2026-05-08 09:55 42.62453 31.76110 33136 ft 499 kts 95°
2026-05-08 09:55 42.61680 31.85463 33138 ft 498 kts 95°
2026-05-08 09:56 42.60893 31.94750 33133 ft 498 kts 95°
2026-05-08 09:56 42.60093 32.04087 33137 ft 498 kts 95°
2026-05-08 09:57 42.58881 32.18097 33134 ft 498 kts 96°
2026-05-08 09:57 42.58064 32.27436 33138 ft 499 kts 95°
2026-05-08 09:58 42.57245 32.36719 33144 ft 499 kts 95°
2026-05-08 09:58 42.56411 32.46073 33138 ft 500 kts 95°
2026-05-08 09:59 42.55570 32.55430 33139 ft 500 kts 95°
2026-05-08 09:59 42.54720 32.64787 33142 ft 500 kts 95°
2026-05-08 10:00 42.53868 32.74084 33143 ft 500 kts 95°
2026-05-08 10:00 42.53003 32.83443 33146 ft 501 kts 95°
2026-05-08 10:01 42.52129 32.92811 33144 ft 501 kts 95°
2026-05-08 10:01 42.51247 33.02176 33143 ft 501 kts 95°
2026-05-08 10:02 42.50363 33.11474 33144 ft 501 kts 95°
2026-05-08 10:02 42.49467 33.20833 33156 ft 501 kts 95°
2026-05-08 10:03 42.48562 33.30191 33142 ft 501 kts 95°
2026-05-08 10:03 42.47649 33.39547 33148 ft 501 kts 95°
2026-05-08 10:04 42.46729 33.48904 33143 ft 501 kts 95°
2026-05-08 10:04 42.45808 33.58199 33142 ft 502 kts 95°
2026-05-08 10:05 42.44871 33.67559 33142 ft 502 kts 95°
2026-05-08 10:05 42.43926 33.76924 33151 ft 502 kts 94°
2026-05-08 10:06 42.42973 33.86297 33147 ft 503 kts 95°
2026-05-08 10:06 42.42018 33.95611 33152 ft 503 kts 95°
2026-05-08 10:07 42.41048 34.04991 33151 ft 503 kts 95°
2026-05-08 10:07 42.40069 34.14378 33169 ft 504 kts 95°
2026-05-08 10:08 42.39082 34.23766 33159 ft 504 kts 95°
2026-05-08 10:08 42.38095 34.33082 33156 ft 504 kts 95°
2026-05-08 10:09 42.37095 34.42446 33155 ft 503 kts 95°
2026-05-08 10:09 42.36088 34.51802 33170 ft 503 kts 95°
2026-05-08 10:10 42.35075 34.61136 33159 ft 502 kts 95°
2026-05-08 10:10 42.34062 34.70401 33161 ft 501 kts 95°
2026-05-08 10:11 42.33036 34.79714 33160 ft 501 kts 95°
2026-05-08 10:11 42.32004 34.89010 33169 ft 500 kts 95°
2026-05-08 10:12 42.30964 34.98305 33173 ft 500 kts 95°
2026-05-08 10:12 42.29925 35.07529 33179 ft 500 kts 96°
2026-05-08 10:13 42.28873 35.16795 33167 ft 499 kts 96°
2026-05-08 10:13 42.27815 35.26037 33173 ft 497 kts 96°
2026-05-08 10:14 42.26754 35.35245 33173 ft 495 kts 96°
2026-05-08 10:14 42.25697 35.44351 33178 ft 494 kts 96°
2026-05-08 10:15 42.24628 35.53501 33182 ft 493 kts 96°
2026-05-08 10:15 42.23552 35.62641 33179 ft 493 kts 97°
2026-05-08 10:16 42.22470 35.71768 33182 ft 492 kts 97°
2026-05-08 10:16 42.21381 35.80888 33182 ft 492 kts 97°
2026-05-08 10:17 42.20292 35.89942 33201 ft 492 kts 97°